Погода в Щербакуле

Погода в Щербакуле : погода сейчас, прогноз погоды и архив. Всё, что Вы хотите узнать о погоде в Щербакуле!

Хотите узнать прогноз погоды в Щербакуле? Тогда Вам сюда: Погода в Щербакуле

Поиск расширенной информации на нашем сайте:

Другие новости

Новости СМИ2

Главная страница сайта

Новости сайта

02.10.2013

Напоминаем, что на нашем новом сайте вы можете получить высокодетализированные прогнозы погоды по пунктам России, СНГ и мира (включающие важные для авиации метеовеличины, такие как направление и скорость ветра, видимость, явления погоды, количество и форма облачности, нижняя и верхняя граница облачности), а также ознакомиться с разнообразными материалами по авиационной метеорологии и подборкой полезных ссылок на эту тему.

Сайт Метеоцентр.Азия посвящён разработке технологий оптимизации авиаметеорологического обслуживания, включая проектирование и перспективное создание нескольких автоматизированных авиаметеорологических систем:
- система выпуска высокодетальных прогностических карт явлений погоды для нижнего воздушного пространства по России и ближнему зарубежью;
- система верификации прогнозов TAF (выпускаемых синоптиками официальных АМСГ РФ и ближнего зарубежья) и AUTOTAF (выпускаемых сайтом Метеоцентр.Азия) - выявление ошибок, онлайн-сопоставление с фактической погодой METAR, автоматическое внесение коррективов в прогнозы при резком отклонении фактической погоды от прогноза, подсчёт оправдываемости прогнозов по элементам и в целом;
- система обработки, анализа и отображения авиаметеорологической информации для применения провайдерами метеорологической информации.


Погода в Щербакуле - сегодня

Время (UTC), дата Ветер
(°,м/с) 
Видим.   Явления Облачность Т
(°С)
Тd
(°С)
f(%) Тe
(°С)
Pmin
(гПа)
dP
(гПа)
Po
(мм)
O2
(г/м3)
Тmin Tmax R s Состояние
почвы
15 20.01.17 220 (ЮЗ) 20000 м    6/0 верхняя 
[Ci fib]
-20.5 -23.3 78 -25  1015.7  -1.4  750  329    -16.1  0.0     
18 20.01.17 210 (ЮЗ) 20000 м    ясно 
-18.9 -21.6 79 -23  1013.3  -2.3  749  326           
21 20.01.17 210 (ЮЗ) 20000 м    ясно 
-21.4 -24.4 77 -26  1012.5  -0.9  748  329           
00 21.01.17 200 (Ю) 20000 м  [диам. изморози 2 мм]  ясно 
-19.8 -22.6 78 -26  1010.3  -2  746  326           
03 21.01.17 190 (Ю) 20000 м  [диам. изморози 2 мм]  10/0 средняя, верхняя 
[Ac lent|Cs]
-17.5 -20.2 79 -25  1007.9  -2.3  745  322  -21.9      31  неравномерный
сухой снег
100% 
06 21.01.17 200 (Ю) 9-11{12}  4000 м  слаб. снег  10/0 средняя 
[As op]
-14.4 -17.1 80 -22  1006.1  -1.6  743  318           
09 21.01.17 230 (ЮЗ) 8-12{14}  4000 м  слаб. снег  10/10 420 м 
[Ns]
-11.7 -14.6 79 -18  1005.1  -0.8  743  314           
12 21.01.17 220 (ЮЗ) 8-10{14}  20000 м  позёмок{снег}  10/0 верхняя 
[Cs]
-14.1 -17.4 76 -21  1006.1  0.9  743  317           
15 21.01.17 230 (ЮЗ) 7{11}  20000 м    ясно 
-15.5 -18.7 76 -23  1007.1  0.9  744  319    -11.5  0.4     
18 21.01.17 220 (ЮЗ) 20000 м    ясно 
-16.5 -19.4 78 -21  1008.2  745  321           
21 21.01.17 230 (ЮЗ) 20000 м    10/0 средняя 
[As op]
-13.4 -16.6 77 -18  1008.6  0.6  745  317           
00 22.01.17 230 (ЮЗ) 8-11{12}  20000 м  позёмок  10/0 средняя 
[As op]
-10.8 -14.1 77 -17  1008.6  0.2  745  314           
03 22.01.17 210 (ЮЗ) 7{11}  20000 м  позёмок  10/0 средняя 
[As op]
-10.5 -13.8 77 -17  1008.7  0.1  745  314  -16.5      32  неравномерный
сухой снег
100% 
06 22.01.17 220 (ЮЗ) 7{10}  20000 м    10/0 средняя 
[Ac As]
-10.1 -13.3 77 -16  1009.1  0.4  746  313           
09 22.01.17 210 (ЮЗ) 8-10{11}  4000 м  слаб. снег  10/10 360 м 
[Ns]
-9.1 -11.9 80 -15  1007.2  -1.8  744  311           
12 22.01.17 210 (ЮЗ) 9-11{13}  20000 м  позёмок{снег}  10/10 420 м 
[Ns]
-8.2 -11.1 80 -15  1005.3  -1.8  743  310           
15 22.01.17 210 (ЮЗ) 8-11{13}  4000 м  слаб. снег  10/10 400 м 
[Ns]
-9.5 -11.7 84 -16  1003.2  -2.1  741  311    -8.2  0.4     
18 22.01.17 210 (ЮЗ) 9-13{13}  4000 м  слаб. снег  10/10 360 м 
[Ns]
-9 -11.2 84 -16  1001.1  -2.1  740  309           
21 22.01.17 210 (ЮЗ) 8-11{13}  4000 м  слаб. снег  10/10 420 м 
[Ns]
-8.3 -10.5 84 -14  999.9  -1.1  739  308           
00 23.01.17 230 (ЮЗ) 6{11}  20000 м  {снег}  4/0 верхняя 
[Ci fib]
-8.6 -11.6 79 -14  999.3  -0.6  739  308           
03 23.01.17 210 (ЮЗ) 20000 м    10/10 420 м 
[St]
-11.9 -14.2 83 -15  1000  0.5  739  313  -12.7    0.6  31  неравномерный
сухой снег
100% 
06 23.01.17 250 (З) 20000 м    8/0 верхняя 
[Ci]
-11.4 -14.1 80 -15  1000.9  0.9  740  312  -13         
09 23.01.17 230 (ЮЗ) 20000 м    1/0 верхняя 
[Ci fib]
-12.7 -17.1 70 -17  1002.2  1.2  741  314           
12 23.01.17 250 (З) 20000 м    ясно 
-15.1 -18.6 75 -20  1004.5  2.2  742  318           
15 23.01.17 250 (З) 20000 м    ясно 
-15.7 -19.2 74 -21  1006.2  1.6  743  319    -11.2       
Время (UTC), дата Ветер
(°,м/с) 
Видим.   Явления Облачность Т
(°С)
Тd
(°С)
f(%) Тe
(°С)
Pmin
(гПа)
dP
(гПа)
Po
(мм)
O2
(г/м3)
Тmin Tmax R s Состояние
почвы

Для получения пояснительной информации подведите курсор к названию столбца.

ПОГОДА в Щербакуле - архив

Всё, что Вы хотите узнать о погоде в Щербакуле - удобно и подробно!

Выберите нужную дату (начиная с 1 января 2015* года) и нажмите кнопку "Найти".
Будут отображены архивные сводки погоды по пункту Щербакуль, начиная с указанной даты.


Отображать данные в формате CSV (для использования в таблицах Excel)


Внимание! Наш архив погоды предназначен исключительно для личного некоммерческого использования в познавательных целях. Если Вам необходимы официальные справки о состоянии погоды (для производственных, юридических, коммерческих и т.п. целей), обращайтесь в органы Росгидромета.

*Примечание: данная дата относится к архиву по метеостанциям СССР (Россия, СНГ, Балтия).
Архив по метеостанциям Зарубежной Европы и Азии (кроме Китая) хранится 10 дней, по другим регионам земного шара (Китай, Африка, Америка, Австралия, Океания) - 1 день.

Щербакуль - район местоположения метеостанции


Название, широта, долгота, высота метеостанции:
Щербакуль 54.6°ш. 72.4°д. 115 м над ур. моря [Российская Федерация]

Дополнительная информация

В oтличие oт бoльшинства пoгoдных сайтoв мы публикуем пoдрoбную метеoинфoрмацию в детальнoм прoфессиoнальнoм фoрмате.

Характеристики температуры и влажнoсти вoздуха измеряются на высoте 2 м в тени вдали oт зданий и деревьев.
Скoрoсть ветра измеряется на высoте 10 м (на урoвне рoста челoвека скoрoсть ветра ниже в 1.5-2 раза). Если метеoстанция нахoдится в гoрoде или в лесу, тo скoрoсть ветра занижена на 2-4 м/с пo сравнению с oткрытым местoм. Скoрoсть ветра над акватoриями крупных рек и oзёр, а также на вершинах хoлмoв на 2-5 м/с выше, чем в oбычных услoвиях.
Атмoсфернoе давление в разных тoчках местнoсти мoжет значительнo oтличаться oт давления на метеoстанции, в зависимoсти oт услoвий рельефа (при пoдъёме на 10 м давление пoнижается примернo на 1 мм рт.ст.).